#timestamp,LO_Frequency,Hit,StdDev 
1551006015.0,286047000.4,N
1551006015.9,286047000.4,N
1551006035.9,286047001.1,Y
1551006055.7,286046998.6,P
1551006075.5,286047000.7,N
1551006095.4,286047001.1,N
1551006115.2,286047001.2,N
1551006135.1,286046998.4,N
1551006136.0,286046998.4,N
1551006155.8,286046999.3,N
1551006175.6,286047000.8,N
1551006195.5,286047000.4,N
1551006215.3,286047000.4,N
1551006235.1,286047000.0,N
1551006255.9,286047000.8,N
1551006275.7,286047000.7,N
1551006295.6,286046998.4,N
1551006315.4,286046998.8,N
1551006335.2,286046999.1,N
1551006355.1,286046997.1,N
1551006356.0,286046997.1,N
1551006375.8,286046999.2,N
1551006395.6,286046997.2,N
1551006415.5,286046996.5,N
1551006435.3,286046996.9,N
1551006455.2,286047001.2,N
1551006475.9,286046999.3,N
1551006495.7,286047000.8,N
1551006515.6,286047000.3,N
1551006535.4,286047000.0,N
1551006555.2,286046999.9,N
1551006575.1,286047000.4,N
1551006576.0,286047000.4,N
1551006595.8,286046998.6,N
1551006615.7,286046999.5,N
1551006635.5,286046996.8,N
1551006655.3,286046997.3,N
1551006675.2,286046997.7,N
1551006695.0,286046996.7,N
1551006695.9,286046996.7,N
1551006715.8,286046996.6,N
1551006735.6,286046997.1,N
1551006755.4,286046997.4,N
1551006775.3,286046997.4,N
1551006795.1,286046997.5,N
1551006815.9,286046997.6,N
1551006835.7,286046999.6,N
1551006855.5,286046998.9,N
1551006875.4,286046996.7,N
1551006895.2,286046996.7,N
1551006915.1,286046998.4,N
1551006916.0,286046998.4,N
1551006935.8,286046999.6,N
1551006955.6,286046997.6,N
1551006975.5,286046997.3,N
1551006995.3,286046997.5,N
1551007015.2,286046996.9,N
1551007035.9,286046999.5,N
1551007055.6,286046998.3,N
1551007075.4,286046998.8,N
1551007095.3,286046998.9,N
1551007115.1,286046998.8,N
1551007135.8,286046999.9,N
1551007155.7,286047000.3,N
1551007175.5,286047001.0,N
1551007195.4,286047000.4,N
1551007215.2,286046998.3,N
1551007235.0,286046998.9,N
1551007235.9,286046998.9,N
1551007255.8,286046999.4,N
1551007275.6,286046998.5,N
1551007295.4,286046998.5,N
1551007315.3,286046998.8,N
1551007335.1,286046998.5,N
1551007355.9,286047000.8,N
1551007375.7,286047000.4,N
1551007395.5,286047000.4,N
1551007415.4,286047000.1,N
1551007435.2,286047002.3,N
1551007455.0,286047001.7,N
1551007455.9,286047001.7,N
1551007475.8,286047001.8,N
1551007495.6,286047004.3,Y
1551007515.5,286047002.1,P
1551007535.3,286047000.7,N
1551007555.1,286047002.8,N
1551007575.9,286047002.7,N
1551007595.7,286046999.2,N
1551007615.6,286046996.8,N
1551007635.4,286046996.8,N
1551007655.2,286046999.1,N
1551007675.1,286046998.4,N
1551007676.0,286046998.4,N
1551007695.8,286046998.7,N
1551007715.6,286047000.4,N
1551007735.4,286046998.2,N
1551007755.3,286047000.0,N
1551007775.1,286047001.0,N
1551007795.8,286047001.0,N
1551007815.7,286046999.6,N
1551007835.5,286046996.9,N
1551007855.4,286046997.3,N
1551007875.2,286046996.9,N
1551007895.6,286046999.5,N
1551007915.5,286046996.8,N
1551007935.3,286046997.7,N
1551007955.2,286046998.0,N
1551007975.9,286046997.0,N
1551007995.7,286046999.1,N
1551008015.6,286046998.3,N
1551008035.4,286047000.5,N
1551008055.3,286046998.1,N
1551008075.1,286047000.8,N
1551008076.0,286047000.8,N
1551008095.8,286046998.5,N
1551008115.7,286047001.1,N
1551008135.5,286046998.8,N
1551008155.3,286046998.4,N
1551008175.2,286046999.1,N
1551008195.0,286046998.4,N
1551008195.9,286047011.9,Y
1551008215.8,286047001.1,P
1551008235.6,286046998.2,N
1551008255.4,286047001.2,N
1551008275.3,286047000.8,N
1551008295.1,286047001.1,N
1551008315.9,286046998.2,N
1551008335.7,286047001.1,N
1551008355.5,286047000.0,N
1551008375.3,286047000.9,N
1551008395.2,286047001.1,N
1551008415.9,286047000.8,N
1551008435.7,286047000.2,N
1551008455.6,286046999.8,N
1551008475.4,286046999.8,N
1551008495.3,286047000.0,N
1551008515.1,286047011.9,Y
1551008516.0,286047000.5,P
1551008535.8,286047000.5,P
1551008555.7,286047000.3,N
1551008575.5,286047000.1,N
1551008595.3,286047002.7,Y
1551008615.2,286047000.0,P
1551008635.0,286047000.9,P
1551008635.9,286047000.9,N
1551008655.8,286047000.3,N
1551008675.6,286047001.0,N
1551008695.4,286047001.0,N
1551008715.3,286047001.0,N
1551008735.1,286047009.1,Y
1551008755.9,286047009.7,P
1551008775.7,286047012.2,N
1551008795.5,286047010.1,N
1551008815.4,286047009.5,N
1551008835.2,286047009.8,N
1551008855.0,286047010.0,N
1551008855.9,286047010.0,N
1551008875.8,286047008.0,N
1551008895.6,286047009.1,N
1551008915.4,286047004.5,N
1551008935.3,286047012.4,Y
1551008955.1,286047000.9,P
1551008975.9,286046997.8,N
1551008995.7,286046992.5,N
1551009015.5,286046989.7,N
1551009035.4,286046985.5,N
1551009055.2,286046983.9,N
1551009075.1,286046982.7,N
1551009076.0,286046982.7,N
1551009095.8,286046982.8,N
1551009115.6,286046983.1,N
1551009135.5,286046986.4,N
1551009155.3,286046990.4,N
1551009175.1,286046990.1,N
1551009195.9,286046989.5,N
1551009215.7,286046989.1,N
1551009235.6,286046984.0,N
1551009255.4,286046983.6,N
1551009275.2,286046983.5,N
1551009295.1,286046977.6,Y
1551009296.0,286046977.6,P
1551009315.8,286046987.7,N
1551009335.7,286046987.5,N
1551009355.5,286046988.4,N
1551009375.3,286046984.2,Y
1551009395.2,286046999.6,P
1551009415.0,286046997.2,N
1551009415.9,286046997.2,N
1551009435.8,286046995.2,N
1551009455.6,286046997.5,N
1551009475.4,286046997.3,N
1551009495.3,286046997.7,N
1551009515.1,286046999.5,N
1551009535.8,286046999.4,N
1551009555.7,286046999.4,N
1551009575.5,286046998.8,N
1551009595.4,286046998.7,N
